Lexington Weather

Lexington, Massachusetts, USA

40°F
3/30/2020 9:04am 
  • Lexington Conditions: Mist, Overcast
  • Temperature: 39.7°F / 4.3°CWarmer 0.3°F than last hour.
  • Dew Point: 39.0°FIncreased 0.3°Fsince last hour.
  • Relative Humidity: 97
  • Wind: Wind from N N 2 mph, 10-min avg: 3 mph, gust: 6 mph
  • Barometer: 29.97 in Steady
  • Visibility: 2 miles
  • Rain Today: 0.02 in
  •   

Regional Weather Roundup
for Boston / Norton, MA

        
000
ASUS41 KBOX 272005
RWRBOX

REGIONAL WEATHER ROUNDUP
NATIONAL WEATHER SERVICE BOSTON/NORTON MA
400 PM EDT FRI MAR 27 2020

NOTE:  "FAIR" INDICATES FEW OR NO CLOUDS BELOW 12,000 FEET WITH NO 
SIGNIFICANT WEATHER AND/OR OBSTRUCTIONS TO VISIBILITY.

MAZALL-272100-
EASTERN MASSACHUSETTS
  
CITY           SKY/WX    TMP DP  RH WIND       PRES   REMARKS
BOSTON         FAIR      61  14  16 NW18G29   29.81R                  
BEVERLY        FAIR      60  17  18 NW18G32   29.80R                  
LAWRENCE       FAIR      59  19  21 NW10G21   29.82R                  
BEDFORD        FAIR      62  16  16 NW16G25   29.81R                  
BLUE HILL        N/A     60  20  21 NW10G26   29.80R                  
NORWOOD        FAIR      64  19  17 NW15G22   29.81R                  
MARSHFIELD     FAIR      63  25  23 VRB7G18   29.81R                  
PLYMOUTH       FAIR      62  23  22 N12G24    29.80R                  
TAUNTON        FAIR      64  21  19 NW9G18    29.79S                  
NEW BEDFORD    FAIR      64  21  19 NW10      29.79R                  
$$

MAZALL-272100-
CAPE COD AND THE ISLANDS
  
CITY           SKY/WX    TMP DP  RH WIND       PRES   REMARKS
FALMOUTH       SUNNY     59  25  27 NE17      29.80R                  
HYANNIS        FAIR      59  27  29 N13G22    29.79R                  
CHATHAM        FAIR      58  24  27 N12G21    29.81R                  
PROVINCETOWN   FAIR      54  34  46 NW8       29.82R                  
NANTUCKET      FAIR      58  28  32 N16       29.81R                  
MARTHAS VNYRD  FAIR      65  22  19 VRB7      29.81R                  
$$
 
MAZALL-272100-
CENTRAL AND WESTERN MASSACHUSETTS
  
CITY           SKY/WX    TMP DP  RH WIND       PRES   REMARKS
WORCESTER      FAIR      58  21  24 NW14G22   29.82R                  
FITCHBURG      FAIR      60  19  20 NW15G25   29.83R                  
ORANGE         FAIR      60  21  22 NW15      29.84R                  
SPRINGFIELD    MOSUNNY   62  20  20 NW14G21   29.84R                  
WESTFIELD      FAIR      62  19  19 N18G24    29.85R                  
NORTH ADAMS    FAIR      57  23  26 NW10G22   29.87S                  
PITTSFIELD     FAIR      55  29  36 NW15      29.86R                  
$$
 
RIZALL-272100-
RHODE ISLAND
  
CITY           SKY/WX    TMP DP  RH WIND       PRES   REMARKS
PROVIDENCE     FAIR      65  19  17 N20G28    29.81R                  
NEWPORT        FAIR      65  23  20 NW12      29.81R                  
BLOCK ISLAND   FAIR      61  33  35 W7        29.83R                  
SMITHFIELD     FAIR      61  21  21 N12       29.82R                  
WESTERLY       FAIR      69  23  17 NW9       29.82R                  
$$
 
CTZALL-272100-
CONNECTICUT
  
CITY           SKY/WX    TMP DP  RH WIND       PRES   REMARKS
BRADLEY INTL   FAIR      63  23  21 NW15G21   29.85R                  
HARTFORD       FAIR      63  23  21 NW9       29.84R                  
BRIDGEPORT     FAIR      65  22  19 N14       29.84R                  
DANBURY        FAIR      61  21  21 N12G21    29.87S                  
GROTON         FAIR      64  24  21 N15       29.81R                  
NEW HAVEN      FAIR      66  20  17 N14G21    29.84R                  
CHESTER        FAIR      64  23  20 NW15G21   29.84R                  
MERIDEN        FAIR      63  25  23 NW13      29.84S                  
WILLIMANTIC    FAIR      64  23  21 N8G17     29.83R                  
OXFORD         FAIR      60  21  22 NW14G21   29.87R                  
$$

MEZ002-015-021-024-NHZ003-005-008-011-012-014-VTZ005-008-272100-
NORTHERN NEW ENGLAND
  
CITY           SKY/WX    TMP DP  RH WIND       PRES   REMARKS
PORTLAND ME    FAIR      54  26  34 NW22G28   29.80R                  
BANGOR ME      PTSUNNY   46  26  45 NW26G38   29.76R                  
CONCORD NH     FAIR      58  16  19 NW21G28   29.83R                  
MANCHESTER NH  FAIR      60  11  14 N21G26    29.81R                  
NASHUA NH      FAIR      60  15  17 NW13G22   29.82R                  
PORTSMOUTH NH  SUNNY     58  11  15 NW15G28   29.79R                  
JAFFREY NH     FAIR      56  30  37 N12G22    29.83R                  
KEENE NH       FAIR      57  18  21 N15       29.85R                  
BURLINGTON VT  FAIR      51  19  28 N13       29.92R                  
MT. WASHINGTON FOG       19  19 100 W59G68      N/A  VSB 1/16WCI  -5  
$$

NYZ052-076-272100-
EASTERN NEW YORK
  
CITY           SKY/WX    TMP DP  RH WIND       PRES   REMARKS
ALBANY         FAIR      60  29  30 NW13G22   29.91R                  
NEW YORK CITY  FAIR      66  25  21 CALM      29.85R                  
$$
 
ANZALL-272100-
MARINE OBSERVATIONS
  
STATION/POSITION TIME  TEMP    WIND        PRES    VSBY  WAVE
                       AIR SEA DIR/SP/G                  HT/PER
                 (UTC) (F)     (DEG/KT/KT) (MB)    (MI)  (FT/S)
BOSTON BUOY      1950   51 43  320/ 14/ 16 1008.5R         5/11
BUZZARDS BAY     1900          320/ 17/ 18 1009.9R
NANTUCKET SOUND  1940                        N/A           2/11
MASS BAY-STELLWA 1904   50 42  350/ 16/ 17 1006.5R  1 7/8  6/11
ISLE OF SHOALS   1900   51     340/  9/ 13 1008.1R
S OF BLOCK IS    1930      44                N/A           4/11
$$

......................KEY.........................
  SKY/WX - SKY CONDITION/PRESENT WEATHER
  TMP    - TEMPERATURE IN FAHRENHEIT
  DWPT   - DEWPOINT IN FAHRENHEIT
  RH     - RELATIVE HUMIDITY IN PERCENT
  WIND   - DIRECTION AND SPEED IN MPH
  PRES   - MEAN SEA LEVEL PRESSURE IN INCHES OF HG
  WCI    - WIND CHILL INDEX
  VSB    - VISIBILITY IN MILES
  HX     - HEAT INDEX
  TC     - TEMPERATURE IN CELSIUS
  VRB    - VARIABLE WIND DIRECTION
  N/A    - NOT AVAILABLE
  
      

Other recent Regional Weather Roundups

Mon Mar 30, 8:04am

Mon Mar 30, 7:04am

Mon Mar 30, 6:04am

Mon Mar 30, 5:04am

Mon Mar 30, 4:04am

Mon Mar 30, 3:05am

Mon Mar 30, 2:04am

Mon Mar 30, 1:04am

Mon Mar 30, 12:04am

Sun Mar 29, 11:04pm

Sun Mar 29, 10:05pm

Sun Mar 29, 9:04pm

Sun Mar 29, 8:04pm

Sun Mar 29, 7:04pm

Sun Mar 29, 6:04pm

Sun Mar 29, 5:05pm

Sun Mar 29, 4:04pm

Sun Mar 29, 3:04pm

Sun Mar 29, 2:04pm

Sun Mar 29, 1:05pm

Sun Mar 29, 12:04pm

Sun Mar 29, 11:04am

Sun Mar 29, 10:04am

Sun Mar 29, 9:04am

Sun Mar 29, 8:04am

Sun Mar 29, 7:04am

Sun Mar 29, 6:04am

Sun Mar 29, 5:04am

Sun Mar 29, 4:04am

Sun Mar 29, 3:04am

Sun Mar 29, 2:04am

Sun Mar 29, 1:04am

Sun Mar 29, 12:04am

Sat Mar 28, 11:05pm

Sat Mar 28, 10:04pm

Sat Mar 28, 9:04pm

Sat Mar 28, 8:04pm

Sat Mar 28, 7:04pm

Sat Mar 28, 6:04pm

Sat Mar 28, 5:05pm

Sat Mar 28, 4:04pm

Sat Mar 28, 3:04pm

Sat Mar 28, 2:04pm

Sat Mar 28, 1:05pm

Sat Mar 28, 12:04pm

Sat Mar 28, 11:04am

Sat Mar 28, 10:04am

Sat Mar 28, 9:04am

Sat Mar 28, 8:04am

Sat Mar 28, 7:04am

Sat Mar 28, 6:04am

Sat Mar 28, 5:04am

Sat Mar 28, 4:04am

Sat Mar 28, 3:04am

Sat Mar 28, 2:04am

Sat Mar 28, 1:04am

Sat Mar 28, 12:04am

Fri Mar 27, 11:04pm

Fri Mar 27, 10:04pm

Fri Mar 27, 9:04pm

Fri Mar 27, 8:04pm

Fri Mar 27, 7:05pm

Fri Mar 27, 6:04pm

Fri Mar 27, 5:05pm

Fri Mar 27, 3:04pm

Fri Mar 27, 2:05pm

Fri Mar 27, 1:04pm

Fri Mar 27, 12:04pm

Fri Mar 27, 11:04am

Fri Mar 27, 10:04am

Fri Mar 27, 9:04am

Meta data:

ID: bb640c18-e000-493d-b5e2-e39cac837dd5
Link: https://api.weather.gov/products/bb640c18-e000-493d-b5e2-e39cac837dd5